Location: Solstice Park, West Seattle
(47.5363°N, 122.3905°W)
Time: 08:18:06
(UTC-07:00)

ISS - Pass Details

Date: 17 May 2021
Orbit: 417 x 422 km, 51.6° (Epoch: 18 June)

Event Time Altitude Azimuth Distance (km) Brightness Sun altitude
Rises 02:22:47 0° 294° (WNW) 2,373 0.1 -20.9°
Reaches altitude 10° 02:24:53 10° 294° (WNW) 1,508 -0.9 -20.7°
Enters shadow 02:26:40 29° 296° (WNW) 812 -2.3 -20.6°
Exits shadow 02:32:50 - 114° (ESE) 1,985 -0.4 -20.3°
Sets 02:33:51 0° 114° (ESE) 2,402 0.1 -20.2°
